Regional Weather Roundup
Issued by NWS

Home | Current Version | Previous Version | Graphics & Text | Print | Product List | Glossary On
Versions: 1 2 3 4 5 6 7 8 9 10 11 12 13 14 15 16 17 18 19 20 21 22 23 24 25 26 27 28 29 30 31 32 33 34 35 36 37 38 39 40 41 42 43 44 45 46 47 48 49 50
000
ASUS43 KMPX 282301
RWRMN
WEATHER ROUNDUP FOR MINNESOTA
NATIONAL WEATHER SERVICE TWIN CITIES/CHANHASSEN MN
500 PM CST FRI NOV 28 2014


NOTE: "FAIR" INDICATES FEW OR NO CLOUDS BELOW 12,000 FEET WITH NO
SIGNIFICANT WEATHER AND/OR OBSTRUCTIONS TO VISIBILITY. N/A MEANS
CURRENT SKY AND/OR WEATHER CONDITIONS ARE NOT AVAILABLE.

MNZ060>063-068>070-290000-
   Twin Cities Metro

CITY           SKY/WX    TMP DP  RH WIND       PRES   REMARKS
TWIN CITIES    MOCLDY    22  15  75 E13       29.82F WCI  10
ST PAUL        PTCLDY    22  16  78 E6        29.85F WCI  14
CRYSTAL        MOCLDY    23  15  71 E8        29.81F WCI  14
BLAINE         MOCLDY    25  18  74 E9        29.82F WCI  15
LAKEVILLE      MOCLDY    21  18  86 E8        29.81S WCI  12
EDEN PRAIRIE   PTCLDY    23  16  74 E10       29.80F WCI  12
SOUTH ST PAUL  PTCLDY    24  16  73 SE3       29.83F
LAKE ELMO      CLOUDY    23  18  80 SE6       29.84F WCI  16
$$
MNZ001>005-007-008-013>017-022>024-027-028-290000-
   Northwest Minnesota

CITY           SKY/WX    TMP DP  RH WIND       PRES   REMARKS
BEMIDJI        CLOUDY    14   9  79 E10       29.77F WCI   1
HALLOCK        LGT SNOW  18  12  79 SE12      29.76F WCI   5
ROSEAU         CLOUDY    16  10  79 E10       29.78F WCI   3
WARROAD        CLOUDY    16  10  79 E12       29.80F WCI   3
THIEF RVR FALL CLOUDY    16  10  79 E9        29.78S WCI   4
CROOKSTON      CLOUDY    18  10  73 SE10      29.78F WCI   6
FOSSTON        FLURRIES  12   7  79 SE10      29.76F WCI  -1
DETROIT LAKES  PTCLDY    18  12  79 SE12      29.75F WCI   5
MOORHEAD       PTCLDY    18  12  79 SE7       29.76F WCI   8
PARK RAPIDS    CLOUDY    15   9  76 SE10      29.77F WCI   2
MAHNOMEN       CLOUDY    17  11  80 SE7       29.75F WCI   7
$$
MNZ006-009>011-018-025>026-290000-
   North Central Minnesota

CITY           SKY/WX    TMP DP  RH WIND       PRES   REMARKS
BAUDETTE       CLOUDY    15   8  73 E12       29.80F WCI   2
FLAG ISLAND    FLURRIES  12   7  79 E7        29.81F WCI   2
INTL FALLS     CLOUDY    15   8  73 E9        29.85S WCI   3
WASKISH        CLOUDY    16  10  79 CALM      29.80F
BIG FORK       CLOUDY    16   9  73 CALM      29.83S
LONGVILLE      CLOUDY    16   9  73 SE3       29.81F
GRAND RAPIDS   CLOUDY    14   7  73 SE3       29.81F
CRANE LAKE     CLOUDY    16  10  79 CALM      29.88F
ORR            CLOUDY    16   9  73 E3        29.80F
COOK           FLURRIES  16  12  86 CALM      29.84F
WALKER         LGT SNOW  14   8  78 E7        29.78F WCI   4
$$
MNZ012-019>021-037-290000-
   Northeast Minnesota

CITY           SKY/WX    TMP DP  RH WIND       PRES   REMARKS
DULUTH         FLURRIES  16  11  80 E6        29.84R WCI   7
ELY            CLOUDY    18  12  79 E6        29.85S WCI   9
HIBBING        CLOUDY    18  11  74 SE7       29.83F WCI   9
EVELETH        LGT SNOW  18  14  86 E3        29.84F
DULUTH HARBOR  CLOUDY    19  12  73 CALM      29.92R
TWO HARBORS    CLOUDY    19  16  86 CALM      29.86R
SILVER BAY     CLOUDY    19  18  93 E6        29.85F WCI  11
GRAND MARAIS     N/A     23  15  71 NE10      29.93F WCI  12
G MARAIS ARPRT FLURRIES  16   9  73 E7        29.85F WCI   6
$$
MNZ029>031-032-039>041-046>048-054>057-064-290000-
   West Central Minnesota

CITY           SKY/WX    TMP DP  RH WIND       PRES   REMARKS
FERGUS FALLS   MOCLDY    16   9  73 SE9       29.78F WCI   4
WHEATON        CLOUDY    18  12  79 SE13      29.77F WCI   4
MORRIS         PTCLDY    18  12  79 SE8       29.76R WCI   7
ALEXANDRIA     CLOUDY    16  11  80 E12       29.76S WCI   3
ELBOW LAKE     CLOUDY    17  12  80 E12       29.75F WCI   4
WADENA         CLOUDY    16   9  73 E9        29.77F WCI   4
GLENWOOD       PTCLDY    18  12  79 E9        29.77R WCI   6
APPLETON       MOCLDY    18  14  86 E6        29.78R WCI   9
BENSON         MOCLDY    19  14  79 SE7       29.77R WCI  10
ORTONVILLE     MOCLDY    16  12  86 SE7       29.76R WCI   6
MADISON        MOCLDY    21  18  86 E6        29.77R WCI  14
WILLMAR        FAIR      19  14  79 E12       29.77R WCI   7
$$
MNZ033>034-036-042>043-049>051-058-059-290000-
   Central Minnesota

CITY           SKY/WX    TMP DP  RH WIND       PRES   REMARKS
ST CLOUD       CLOUDY    21  13  71 E7        29.80F WCI  12
SAUK CENTRE    CLOUDY    17  13  82 E10       29.78R WCI   5
PAYNESVILLE    PTCLDY    15  12  85 NE8       29.78S WCI   5
AITKIN         CLOUDY    19  10  68 SE6       29.81F WCI  11
PINE RIVER     CLOUDY    16  10  79 E8        29.84S WCI   5
BRAINERD       CLOUDY    15  10  80 VRB5      29.81F WCI   8
STAPLES        CLOUDY    16  10  79 E6        29.78F WCI   7
LONG PRAIRIE   CLOUDY    16  12  86 E9        29.78S WCI   4
LITTLE FALLS   CLOUDY    18  12  79 E6        29.81F WCI   9
LITCHFIELD     MOCLDY    19  18  93 E10       29.77F WCI   8
BUFFALO        MOCLDY    21  15  79 E7        29.81F WCI  12
MAPLE LAKE     MOCLDY    21  17  83 E6        29.80F WCI  13
$$
MNZ037-044-045-052-053-290000-
   East Central Minnesota

CITY           SKY/WX    TMP DP  RH WIND       PRES   REMARKS
PRINCETON      MOCLDY    19  16  86 E7        29.82F WCI  10
MORA             N/A    N/A N/A N/A MISG        N/A
CAMBRIDGE      MOCLDY    21  12  68 CALM      29.82F
RUSH CITY      CLOUDY    19  13  79 E3        29.86R
MOOSE LAKE     CLOUDY    19  10  68 SE3       29.85R
HINCKLEY       CLOUDY    19  14  79 CALM      29.86R
CLOQUET        CLOUDY    16  10  79 E6        29.84F WCI   7
MCGREGOR       CLOUDY    18  12  79 SE5       29.84S WCI  11
$$
MNZ071>073-080-081-089-090-097-098-290000-
   Southwest Minnesota

CITY           SKY/WX    TMP DP  RH WIND       PRES   REMARKS
MONTEVIDEO     MOCLDY    18  16  93 SE10      29.77R WCI   6
GRANITE FALLS  PTCLDY    21  17  86 E8        29.76S WCI  11
CANBY          CLOUDY    21  19  91 E7        29.75R WCI  12
MARSHALL       MOCLDY    21  16  79 E8        29.72S WCI  12
REDWOOD FALLS  MOCLDY    22  17  81 E6        29.77R WCI  14
OLIVIA         CLOUDY    21  18  86 E10       29.77R WCI  10
PIPESTONE      PTCLDY    30  27  86 SE7       29.66S WCI  23
WINDOM         MOCLDY    25  21  86 E8        29.71S WCI  16
WORTHINGTON    PTCLDY    27  23  86 E7        29.70R WCI  19
JACKSON        MOCLDY    25  21  86 SE9       29.71S WCI  15
TRACY          MOCLDY    23  20  89 E6        29.72S WCI  16
SLAYTON        MOCLDY    26  24  91 CALM      29.70R
$$
MNZ065>067-074>077-082>085-091>093-290000-
   South Central Minnesota

CITY           SKY/WX    TMP DP  RH WIND       PRES   REMARKS
MANKATO        MOCLDY    23  18  80 E12       29.77F WCI  12
NEW ULM        PTCLDY    21  19  93 E7        29.76F WCI  13
ST JAMES       MOCLDY    25  19  80 E8        29.76S WCI  16
FAIRMONT       MOCLDY    25  19  80 SE13      29.73S WCI  13
GLENCOE        MOCLDY    22  19  87 E7        29.78F WCI  13
FARIBAULT      MOCLDY    23  19  86 E8        29.80F WCI  14
OWATONNA       CLOUDY    25  19  80 SE9       29.78F WCI  15
WASECA         MOCLDY    21  16  79 E10       29.80F WCI  10
ALBERT LEA     MOCLDY    23  19  86 SE8       29.77F WCI  14
$$
MNZ078>079-086>088-094>096-290000-
   Southeast Minnesota

CITY           SKY/WX    TMP DP  RH WIND       PRES   REMARKS
ROCHESTER      CLOUDY    24  19  81 SE12      29.81F WCI  13
RED WING       MIX PCPN  25  18  74 E9        29.84F WCI  15
STANTON        MOCLDY    25  19  80 E9        29.80F WCI  15
DODGE CENTER   CLOUDY    25  21  86 SE13      29.79S WCI  13
WINONA         MOCLDY    28  21  74 CALM      29.89S
AUSTIN         CLOUDY    25  21  86 SE9       29.78F WCI  15
PRESTON        MOCLDY    23  19  85 SE7       29.82F WCI  15
$$
ABBREVIATIONS USED IN REMARKS
   TC - TEMPERATURES IN CELSIUS
  WCI - WIND CHILL INDEX
   HX - HEAT INDEX
  VSB - VISIBILITY
$$


USA.gov is the U.S. government's official web portal to all federal, state and local government web resources and services.